Time,TemperatureF,DewpointF,PressureIn,WindDirection,WindDirectionDegrees,WindSpeedMPH,WindSpeedGustMPH,Humidity,HourlyPrecipIn,Conditions,Clouds,dailyrainin,SoftwareType,DateUTC
2013-01-12 00:00:00,35.5,27.4,30.05,ESE,111,1.0,6.0,72,0.00,,---,0.00,VWS V14.00,2013-01-12 08:00:00,
2013-01-12 00:01:00,38.2,27.9,30.04,ENE,70,1.0,5.0,66,0.00,,---,0.00,VWS V14.00,2013-01-12 08:01:00,
2013-01-12 00:16:00,40.2,25.0,30.04,NNE,22,1.0,6.0,56,0.00,,,0.00,weatherlink.com 1.10,2013-01-12 08:16:00,
2013-01-12 00:30:00,35.2,26.8,30.04,East,93,0.0,4.0,71,0.00,,---,0.00,VWS V14.00,2013-01-12 08:30:00,
2013-01-12 00:31:00,38.0,27.3,30.04,ESE,119,4.0,6.0,65,0.00,,---,0.00,VWS V14.00,2013-01-12 08:31:00,
2013-01-12 00:50:00,35.8,27.0,30.05,ESE,117,3.0,5.0,71,0.00,,,0.00,weatherlink.com 1.10,2013-01-12 08:50:00,
2013-01-12 01:00:00,38.7,26.0,30.04,ESE,120,1.0,4.0,60,0.00,,---,0.00,VWS V14.00,2013-01-12 09:00:00,
2013-01-12 01:01:00,35.5,27.4,30.05,ESE,111,1.0,6.0,72,0.00,,---,0.00,VWS V14.00,2013-01-12 09:01:00,
2013-01-12 01:08:00,35.5,27.0,30.05,ESE,116,0.0,4.0,72,0.00,,,0.00,weatherlink.com 1.10,2013-01-12 09:08:00,
2013-01-12 01:26:00,35.5,27.0,30.05,SE,127,2.0,4.0,71,0.00,,,0.00,weatherlink.com 1.10,2013-01-12 09:26:00,
2013-01-12 01:30:00,38.8,26.5,30.04,North,355,0.0,4.0,61,0.00,,---,0.00,VWS V14.00,2013-01-12 09:30:00,
2013-01-12 01:31:00,35.2,26.8,30.04,East,93,0.0,4.0,71,0.00,,---,0.00,VWS V14.00,2013-01-12 09:31:00,
2013-01-12 01:43:00,36.0,26.0,30.04,ENE,65,1.0,3.0,67,0.00,,,0.00,weatherlink.com 1.10,2013-01-12 09:43:00,
2013-01-12 02:00:00,38.6,26.0,30.04,ESE,122,1.0,3.0,60,0.00,,,0.00,weatherlink.com 1.10,2013-01-12 10:00:00,
2013-01-12 02:01:00,38.7,26.0,30.04,ESE,120,1.0,4.0,60,0.00,,---,0.00,VWS V14.00,2013-01-12 10:01:00,
2013-01-12 02:18:00,37.5,26.0,30.04,NNE,32,0.0,3.0,64,0.00,,,0.00,weatherlink.com 1.10,2013-01-12 10:18:00,
2013-01-12 02:30:00,36.8,26.9,30.03,East,85,2.0,3.0,67,0.00,,---,0.00,VWS V14.00,2013-01-12 10:30:00,
2013-01-12 02:31:00,38.8,26.5,30.04,North,355,0.0,4.0,61,0.00,,---,0.00,VWS V14.00,2013-01-12 10:31:00,
2013-01-12 02:35:00,38.8,26.0,30.04,SSE,153,2.0,2.0,61,0.00,,,0.00,weatherlink.com 1.10,2013-01-12 10:35:00,
2013-01-12 02:53:00,36.7,27.0,30.04,ENE,69,2.0,3.0,68,0.00,,,0.00,weatherlink.com 1.10,2013-01-12 10:53:00,
2013-01-12 03:00:00,37.5,26.1,30.03,ESE,103,1.0,7.0,63,0.00,,---,0.00,VWS V14.00,2013-01-12 11:00:00,
2013-01-12 03:01:00,37.3,26.3,30.04,East,81,2.0,3.0,64,0.00,,---,0.00,VWS V14.00,2013-01-12 11:01:00,
2013-01-12 03:09:00,38.3,26.0,30.04,East,80,3.0,3.0,62,0.00,,,0.00,weatherlink.com 1.10,2013-01-12 11:09:00,
2013-01-12 03:27:00,37.3,27.0,30.04,East,94,1.0,4.0,66,0.00,,,0.00,weatherlink.com 1.10,2013-01-12 11:27:00,
2013-01-12 03:30:00,34.7,26.3,30.03,ESE,106,1.0,7.0,71,0.00,,---,0.00,VWS V14.00,2013-01-12 11:30:00,
2013-01-12 03:44:00,36.1,26.0,30.03,East,80,0.0,2.0,68,0.00,,,0.00,weatherlink.com 1.10,2013-01-12 11:44:00,
2013-01-12 04:00:00,35.4,26.3,30.04,ESE,107,0.0,5.0,69,0.00,,---,0.00,VWS V14.00,2013-01-12 12:00:00,
2013-01-12 04:01:00,37.5,26.0,30.03,ESE,110,0.0,4.0,63,0.00,,,0.00,weatherlink.com 1.10,2013-01-12 12:01:00,
2013-01-12 04:19:00,34.9,27.0,30.03,ESE,104,1.0,7.0,72,0.00,,,0.00,weatherlink.com 1.10,2013-01-12 12:19:00,
2013-01-12 04:30:00,36.6,24.4,30.04,ENE,73,2.0,5.0,61,0.00,,---,0.00,VWS V14.00,2013-01-12 12:30:00,
2013-01-12 04:31:00,34.7,26.3,30.03,ESE,106,1.0,7.0,71,0.00,,---,0.00,VWS V14.00,2013-01-12 12:31:00,
2013-01-12 04:53:00,36.4,25.0,30.03,ESE,113,1.0,3.0,64,0.00,,,0.00,weatherlink.com 1.10,2013-01-12 12:53:00,
2013-01-12 05:00:00,34.8,25.3,30.06,ESE,120,1.0,3.0,68,0.00,,---,0.00,VWS V14.00,2013-01-12 13:00:00,
2013-01-12 05:01:00,35.4,26.3,30.04,ESE,107,0.0,5.0,69,0.00,,---,0.00,VWS V14.00,2013-01-12 13:01:00,
2013-01-12 05:11:00,35.2,25.0,30.04,ENE,65,0.0,5.0,66,0.00,,,0.00,weatherlink.com 1.10,2013-01-12 13:11:00,
2013-01-12 05:27:00,36.5,24.0,30.04,SE,132,2.0,5.0,61,0.00,,,0.00,weatherlink.com 1.10,2013-01-12 13:27:00,
2013-01-12 05:30:00,33.7,23.9,30.07,ESE,113,1.0,7.0,67,0.00,,---,0.00,VWS V14.00,2013-01-12 13:30:00,
2013-01-12 05:45:00,36.4,24.0,30.04,ESE,108,0.0,3.0,62,0.00,,,0.00,weatherlink.com 1.10,2013-01-12 13:45:00,
2013-01-12 06:00:00,33.4,24.7,30.08,ESE,115,1.0,6.0,70,0.00,,---,0.00,VWS V14.00,2013-01-12 14:00:00,
2013-01-12 06:01:00,34.8,25.3,30.06,ESE,120,1.0,3.0,68,0.00,,---,0.00,VWS V14.00,2013-01-12 14:01:00,
2013-01-12 06:19:00,33.9,25.0,30.06,East,90,5.0,5.0,69,0.00,,,0.00,weatherlink.com 1.10,2013-01-12 14:19:00,
2013-01-12 06:30:00,34.6,24.8,30.08,ESE,111,3.0,5.0,67,0.00,,---,0.00,VWS V14.00,2013-01-12 14:30:00,
2013-01-12 06:31:00,33.7,23.9,30.07,ESE,113,1.0,7.0,67,0.00,,---,0.00,VWS V14.00,2013-01-12 14:31:00,
2013-01-12 06:37:00,34.6,23.0,30.07,ESE,116,0.0,5.0,64,0.00,,,0.00,weatherlink.com 1.10,2013-01-12 14:37:00,
2013-01-12 06:53:00,34.6,24.0,30.07,ESE,120,3.0,4.0,65,0.00,,,0.00,weatherlink.com 1.10,2013-01-12 14:53:00,
2013-01-12 07:00:00,37.5,26.1,30.10,East,101,0.0,7.0,63,0.00,,---,0.00,VWS V14.00,2013-01-12 15:00:00,
2013-01-12 07:01:00,33.4,24.7,30.08,ESE,115,1.0,6.0,70,0.00,,---,0.00,VWS V14.00,2013-01-12 15:01:00,
2013-01-12 07:11:00,33.7,24.0,30.08,SE,129,3.0,3.0,68,0.00,,,0.00,weatherlink.com 1.10,2013-01-12 15:11:00,
2013-01-12 07:29:00,34.5,25.0,30.08,ESE,120,3.0,5.0,67,0.00,,,0.00,weatherlink.com 1.10,2013-01-12 15:29:00,
2013-01-12 07:30:00,41.0,27.8,30.10,ESE,107,0.0,4.0,59,0.00,,---,0.00,VWS V14.00,2013-01-12 15:30:00,
2013-01-12 07:31:00,34.6,24.8,30.08,ESE,111,3.0,5.0,67,0.00,,---,0.00,VWS V14.00,2013-01-12 15:31:00,
2013-01-12 07:46:00,35.0,25.0,30.09,East,84,2.0,5.0,67,0.00,,,0.00,weatherlink.com 1.10,2013-01-12 15:46:00,
2013-01-12 08:00:00,45.3,26.8,30.11,ESE,108,0.0,3.0,48,0.00,,---,0.00,VWS V14.00,2013-01-12 16:00:00,
2013-01-12 08:01:00,37.5,26.1,30.10,East,101,0.0,7.0,63,0.00,,---,0.00,VWS V14.00,2013-01-12 16:01:00,
2013-01-12 08:20:00,40.4,26.0,30.10,SE,132,1.0,6.0,58,0.00,,,0.00,weatherlink.com 1.10,2013-01-12 16:20:00,
2013-01-12 08:30:00,48.1,24.3,30.11,ENE,67,0.0,6.0,39,0.00,,---,0.00,VWS V14.00,2013-01-12 16:30:00,
2013-01-12 08:31:00,41.0,27.8,30.10,ESE,107,0.0,4.0,59,0.00,,---,0.00,VWS V14.00,2013-01-12 16:31:00,
2013-01-12 08:38:00,42.2,26.0,30.10,SE,126,0.0,5.0,53,0.00,,,0.00,weatherlink.com 1.10,2013-01-12 16:38:00,
2013-01-12 08:56:00,44.4,25.0,30.11,ESE,109,0.0,3.0,47,0.00,,,0.00,weatherlink.com 1.10,2013-01-12 16:56:00,
2013-01-12 09:00:00,49.7,22.5,30.12,SSE,151,2.0,5.0,34,0.00,,---,0.00,VWS V14.00,2013-01-12 17:00:00,
2013-01-12 09:01:00,45.3,26.8,30.11,ESE,108,0.0,3.0,48,0.00,,---,0.00,VWS V14.00,2013-01-12 17:01:00,
2013-01-12 09:12:00,46.4,25.0,30.11,ENE,76,0.0,5.0,44,0.00,,,0.00,weatherlink.com 1.10,2013-01-12 17:12:00,
2013-01-12 09:30:00,48.1,24.0,30.11,ENE,69,0.0,4.0,39,0.00,,,0.00,weatherlink.com 1.10,2013-01-12 17:30:00,
2013-01-12 09:31:00,48.1,24.3,30.11,ENE,67,0.0,6.0,39,0.00,,---,0.00,VWS V14.00,2013-01-12 17:31:00,
2013-01-12 09:47:00,50.0,25.0,30.12,SSE,159,2.0,5.0,38,0.00,,,0.00,weatherlink.com 1.10,2013-01-12 17:47:00,
2013-01-12 10:00:00,49.4,24.9,30.11,West,264,2.0,9.0,38,0.00,,---,0.00,VWS V14.00,2013-01-12 18:00:00,
2013-01-12 10:01:00,49.7,22.5,30.12,SSE,151,2.0,5.0,34,0.00,,---,0.00,VWS V14.00,2013-01-12 18:01:00,
2013-01-12 10:05:00,50.2,23.0,30.12,WSW,257,1.0,5.0,34,0.00,,,0.00,weatherlink.com 1.10,2013-01-12 18:05:00,
2013-01-12 10:22:00,49.6,21.0,30.12,West,269,2.0,5.0,33,0.00,,,0.00,weatherlink.com 1.10,2013-01-12 18:22:00,
2013-01-12 10:30:00,49.7,24.5,30.10,WSW,258,8.0,10.0,37,0.00,,---,0.00,VWS V14.00,2013-01-12 18:30:00,
2013-01-12 10:31:00,49.3,25.4,30.12,West,280,2.0,6.0,39,0.00,,---,0.00,VWS V14.00,2013-01-12 18:31:00,
2013-01-12 10:39:00,48.6,24.0,30.12,West,259,6.0,8.0,38,0.00,,,0.00,weatherlink.com 1.10,2013-01-12 18:39:00,
2013-01-12 10:56:00,49.1,24.0,30.12,WNW,283,2.0,8.0,38,0.00,,,0.00,weatherlink.com 1.10,2013-01-12 18:56:00,
2013-01-12 11:00:00,49.7,27.0,30.08,West,259,6.0,10.0,41,0.00,,---,0.00,VWS V14.00,2013-01-12 19:00:00,
2013-01-12 11:01:00,49.4,24.9,30.11,West,264,2.0,9.0,38,0.00,,---,0.00,VWS V14.00,2013-01-12 19:01:00,
2013-01-12 11:14:00,49.4,23.0,30.11,WNW,298,4.0,8.0,35,0.00,,,0.00,weatherlink.com 1.10,2013-01-12 19:14:00,
2013-01-12 11:30:00,49.6,30.7,30.07,NW,317,5.0,12.0,48,0.00,,---,0.00,VWS V14.00,2013-01-12 19:30:00,
2013-01-12 11:31:00,49.7,24.5,30.10,WSW,258,8.0,10.0,37,0.00,,---,0.00,VWS V14.00,2013-01-12 19:31:00,
2013-01-12 11:49:00,50.0,26.0,30.09,West,279,5.0,10.0,39,0.00,,,0.00,weatherlink.com 1.10,2013-01-12 19:49:00,
2013-01-12 12:00:00,49.9,29.4,30.07,WSW,253,8.0,12.0,45,0.00,,---,0.00,VWS V14.00,2013-01-12 20:00:00,
2013-01-12 12:01:00,49.7,27.0,30.08,West,259,6.0,10.0,41,0.00,,---,0.00,VWS V14.00,2013-01-12 20:01:00,
2013-01-12 12:05:00,50.0,25.0,30.09,WSW,246,7.0,9.0,38,0.00,,,0.00,weatherlink.com 1.10,2013-01-12 20:05:00,
2013-01-12 12:23:00,49.4,28.0,30.08,NW,311,6.0,13.0,44,0.00,,,0.00,weatherlink.com 1.10,2013-01-12 20:23:00,
2013-01-12 12:30:00,50.3,28.7,30.07,WSW,258,7.0,12.0,43,0.00,,---,0.00,VWS V14.00,2013-01-12 20:30:00,
2013-01-12 12:31:00,49.6,30.7,30.07,NW,317,5.0,12.0,48,0.00,,---,0.00,VWS V14.00,2013-01-12 20:31:00,
2013-01-12 12:41:00,50.0,30.0,30.07,WSW,253,4.0,12.0,47,0.00,,,0.00,weatherlink.com 1.10,2013-01-12 20:41:00,
2013-01-12 12:57:00,50.1,28.0,30.07,West,267,9.0,12.0,42,0.00,,,0.00,weatherlink.com 1.10,2013-01-12 20:57:00,
2013-01-12 13:00:00,50.8,29.1,30.07,WSW,244,6.0,13.0,43,0.00,,---,0.00,VWS V14.00,2013-01-12 21:00:00,
2013-01-12 13:15:00,49.9,29.0,30.07,WSW,252,7.0,12.0,44,0.00,,,0.00,weatherlink.com 1.10,2013-01-12 21:15:00,
2013-01-12 13:30:00,51.2,28.9,30.07,West,260,5.0,11.0,42,0.00,,---,0.00,VWS V14.00,2013-01-12 21:30:00,
2013-01-12 13:31:00,50.3,28.7,30.07,WSW,258,7.0,12.0,43,0.00,,---,0.00,VWS V14.00,2013-01-12 21:31:00,
2013-01-12 13:33:00,50.4,28.0,30.07,WSW,257,6.0,12.0,43,0.00,,,0.00,weatherlink.com 1.10,2013-01-12 21:33:00,
2013-01-12 13:50:00,50.7,29.0,30.07,West,265,5.0,11.0,44,0.00,,,0.00,weatherlink.com 1.10,2013-01-12 21:50:00,
2013-01-12 14:00:00,51.5,30.3,30.07,WNW,286,6.0,11.0,44,0.00,,---,0.00,VWS V14.00,2013-01-12 22:00:00,
2013-01-12 14:01:00,50.8,29.1,30.07,WSW,244,6.0,13.0,43,0.00,,---,0.00,VWS V14.00,2013-01-12 22:01:00,
2013-01-12 14:07:00,50.9,31.0,30.07,West,267,4.0,13.0,46,0.00,,,0.00,weatherlink.com 1.10,2013-01-12 22:07:00,
2013-01-12 14:25:00,51.1,30.0,30.07,West,259,7.0,10.0,45,0.00,,,0.00,weatherlink.com 1.10,2013-01-12 22:25:00,
2013-01-12 14:30:00,50.7,30.7,30.07,West,277,8.0,10.0,46,0.00,,---,0.00,VWS V14.00,2013-01-12 22:30:00,
2013-01-12 14:31:00,51.2,28.9,30.07,West,260,5.0,11.0,42,0.00,,---,0.00,VWS V14.00,2013-01-12 22:31:00,
2013-01-12 14:42:00,51.0,30.0,30.07,WSW,252,6.0,11.0,44,0.00,,,0.00,weatherlink.com 1.10,2013-01-12 22:42:00,
2013-01-12 15:00:00,51.6,30.0,30.07,WNW,289,6.0,9.0,43,0.00,,,0.00,weatherlink.com 1.10,2013-01-12 23:00:00,
2013-01-12 15:01:00,51.5,30.3,30.07,WNW,286,6.0,11.0,44,0.00,,---,0.00,VWS V14.00,2013-01-12 23:01:00,
2013-01-12 15:16:00,50.9,31.0,30.07,WNW,286,4.0,10.0,46,0.00,,,0.00,weatherlink.com 1.10,2013-01-12 23:16:00,
2013-01-12 15:30:00,50.3,32.9,30.07,WNW,285,3.0,7.0,51,0.00,,---,0.00,VWS V14.00,2013-01-12 23:30:00,
2013-01-12 15:31:00,50.7,30.7,30.07,West,277,8.0,10.0,46,0.00,,---,0.00,VWS V14.00,2013-01-12 23:31:00,
2013-01-12 15:34:00,50.5,30.0,30.07,WNW,286,9.0,9.0,46,0.00,,,0.00,weatherlink.com 1.10,2013-01-12 23:34:00,
2013-01-12 15:52:00,50.8,32.0,30.06,West,267,6.0,8.0,48,0.00,,,0.00,weatherlink.com 1.10,2013-01-12 23:52:00,
2013-01-12 16:00:00,49.2,33.3,30.07,WNW,293,3.0,8.0,54,0.00,,---,0.00,VWS V14.00,2013-01-13 00:00:00,
2013-01-12 16:01:00,50.5,32.1,30.07,West,271,6.0,9.0,49,0.00,,---,0.00,VWS V14.00,2013-01-13 00:01:00,
2013-01-12 16:08:00,50.5,32.0,30.07,SW,227,6.0,7.0,50,0.00,,,0.00,weatherlink.com 1.10,2013-01-13 00:08:00,
2013-01-12 16:26:00,50.5,33.0,30.07,WSW,258,5.0,7.0,51,0.00,,,0.00,weatherlink.com 1.10,2013-01-13 00:26:00,
2013-01-12 16:30:00,48.2,34.1,30.07,West,266,0.0,5.0,58,0.00,,---,0.00,VWS V14.00,2013-01-13 00:30:00,
2013-01-12 16:31:00,50.3,32.9,30.07,WNW,285,3.0,7.0,51,0.00,,---,0.00,VWS V14.00,2013-01-13 00:31:00,
2013-01-12 16:43:00,49.8,33.0,30.07,WSW,244,3.0,8.0,53,0.00,,,0.00,weatherlink.com 1.10,2013-01-13 00:43:00,
2013-01-12 17:00:00,49.2,33.0,30.07,West,275,4.0,5.0,54,0.00,,,0.00,weatherlink.com 1.10,2013-01-13 01:00:00,
2013-01-12 17:01:00,49.2,33.3,30.07,WNW,293,3.0,8.0,54,0.00,,---,0.00,VWS V14.00,2013-01-13 01:01:00,
2013-01-12 17:18:00,48.3,33.0,30.07,WSW,249,0.0,3.0,57,0.00,,,0.00,weatherlink.com 1.10,2013-01-13 01:18:00,
2013-01-12 17:30:00,46.3,34.0,30.07,ESE,109,1.0,2.0,62,0.00,,---,0.00,VWS V14.00,2013-01-13 01:30:00,
2013-01-12 17:31:00,48.2,34.1,30.07,West,266,0.0,5.0,58,0.00,,---,0.00,VWS V14.00,2013-01-13 01:31:00,
2013-01-12 17:34:00,48.1,34.0,30.07,West,265,0.0,3.0,58,0.00,,,0.00,weatherlink.com 1.10,2013-01-13 01:34:00,
2013-01-12 17:52:00,47.7,34.0,30.07,West,266,0.0,2.0,59,0.00,,,0.00,weatherlink.com 1.10,2013-01-13 01:52:00,
2013-01-12 18:00:00,44.9,33.5,30.07,East,97,1.0,3.0,64,0.00,,---,0.00,VWS V14.00,2013-01-13 02:00:00,
2013-01-12 18:01:00,47.5,33.9,30.07,West,266,0.0,2.0,59,0.00,,---,0.00,VWS V14.00,2013-01-13 02:01:00,
2013-01-12 18:09:00,47.0,34.0,30.07,NW,311,0.0,0.0,61,0.00,,,0.00,weatherlink.com 1.10,2013-01-13 02:09:00,
2013-01-12 18:27:00,46.7,34.0,30.07,ESE,117,2.0,2.0,62,0.00,,,0.00,weatherlink.com 1.10,2013-01-13 02:27:00,
2013-01-12 18:30:00,43.2,33.0,30.07,SE,130,1.0,3.0,67,0.00,,---,0.00,VWS V14.00,2013-01-13 02:30:00,
2013-01-12 18:31:00,46.3,34.0,30.07,ESE,109,1.0,2.0,62,0.00,,---,0.00,VWS V14.00,2013-01-13 02:31:00,
2013-01-12 18:43:00,45.4,33.0,30.07,East,90,1.0,3.0,62,0.00,,,0.00,weatherlink.com 1.10,2013-01-13 02:43:00,
2013-01-12 19:00:00,40.2,31.6,30.07,ESE,123,1.0,4.0,71,0.00,,---,0.00,VWS V14.00,2013-01-13 03:00:00,
2013-01-12 19:01:00,44.9,33.5,30.07,East,97,1.0,3.0,64,0.00,,---,0.00,VWS V14.00,2013-01-13 03:01:00,
2013-01-12 19:18:00,44.1,33.0,30.07,ESE,117,0.0,3.0,65,0.00,,,0.00,weatherlink.com 1.10,2013-01-13 03:18:00,
2013-01-12 19:30:00,40.0,31.4,30.07,ESE,108,0.0,4.0,71,0.00,,---,0.00,VWS V14.00,2013-01-13 03:30:00,
2013-01-12 19:31:00,43.2,33.0,30.07,SE,130,1.0,3.0,67,0.00,,---,0.00,VWS V14.00,2013-01-13 03:31:00,
2013-01-12 19:36:00,42.6,33.0,30.07,ESE,122,0.0,3.0,68,0.00,,,0.00,weatherlink.com 1.10,2013-01-13 03:36:00,
2013-01-12 19:52:00,40.4,32.0,30.07,SE,127,1.0,4.0,71,0.00,,,0.00,weatherlink.com 1.10,2013-01-13 03:52:00,
2013-01-12 20:00:00,39.5,30.5,30.07,ESE,106,0.0,4.0,70,0.00,,---,0.00,VWS V14.00,2013-01-13 04:00:00,
2013-01-12 20:01:00,40.2,31.6,30.07,ESE,123,1.0,4.0,71,0.00,,---,0.00,VWS V14.00,2013-01-13 04:01:00,
2013-01-12 20:10:00,40.1,31.0,30.07,ESE,119,2.0,2.0,71,0.00,,,0.00,weatherlink.com 1.10,2013-01-13 04:10:00,
2013-01-12 20:27:00,40.0,31.0,30.07,SE,132,0.0,2.0,71,0.00,,,0.00,weatherlink.com 1.10,2013-01-13 04:27:00,
2013-01-12 20:30:00,39.9,30.6,30.08,East,80,0.0,4.0,69,0.00,,---,0.00,VWS V14.00,2013-01-13 04:30:00,
2013-01-12 20:31:00,40.0,31.4,30.07,ESE,108,0.0,4.0,71,0.00,,---,0.00,VWS V14.00,2013-01-13 04:31:00,
2013-01-12 20:44:00,40.2,31.0,30.07,SE,132,1.0,3.0,70,0.00,,,0.00,weatherlink.com 1.10,2013-01-13 04:44:00,
2013-01-12 21:00:00,39.2,29.9,30.07,ESE,119,3.0,5.0,69,0.00,,---,0.00,VWS V14.00,2013-01-13 05:00:00,
2013-01-12 21:01:00,39.5,30.5,30.07,ESE,106,0.0,4.0,70,0.00,,---,0.00,VWS V14.00,2013-01-13 05:01:00,
2013-01-12 21:18:00,40.1,30.0,30.08,ESE,114,0.0,2.0,68,0.00,,,0.00,weatherlink.com 1.10,2013-01-13 05:18:00,
2013-01-12 21:30:00,38.5,29.2,30.07,ENE,71,0.0,4.0,69,0.00,,---,0.00,VWS V14.00,2013-01-13 05:30:00,
2013-01-12 21:31:00,39.9,30.6,30.08,East,80,0.0,4.0,69,0.00,,---,0.00,VWS V14.00,2013-01-13 05:31:00,
2013-01-12 21:36:00,40.0,30.0,30.08,East,85,1.0,3.0,68,0.00,,,0.00,weatherlink.com 1.10,2013-01-13 05:36:00,
2013-01-12 21:53:00,39.7,30.0,30.07,ESE,119,2.0,3.0,68,0.00,,,0.00,weatherlink.com 1.10,2013-01-13 05:53:00,
2013-01-12 22:00:00,38.4,29.1,30.07,East,97,0.0,5.0,69,0.00,,---,0.00,VWS V14.00,2013-01-13 06:00:00,
2013-01-12 22:01:00,39.2,29.9,30.07,ESE,119,3.0,5.0,69,0.00,,---,0.00,VWS V14.00,2013-01-13 06:01:00,
2013-01-12 22:10:00,37.7,30.0,30.07,SE,124,1.0,4.0,73,0.00,,,0.00,weatherlink.com 1.10,2013-01-13 06:10:00,
2013-01-12 22:28:00,38.3,29.0,30.07,East,84,0.0,3.0,70,0.00,,,0.00,weatherlink.com 1.10,2013-01-13 06:28:00,
2013-01-12 22:30:00,38.3,28.7,30.07,ESE,108,1.0,3.0,68,0.00,,---,0.00,VWS V14.00,2013-01-13 06:30:00,
2013-01-12 22:31:00,38.5,29.2,30.07,ENE,71,0.0,4.0,69,0.00,,---,0.00,VWS V14.00,2013-01-13 06:31:00,
2013-01-12 22:45:00,38.9,29.0,30.07,SE,128,2.0,3.0,68,0.00,,,0.00,weatherlink.com 1.10,2013-01-13 06:45:00,
2013-01-12 23:00:00,38.1,28.5,30.07,ESE,117,0.0,3.0,68,0.00,,---,0.00,VWS V14.00,2013-01-13 07:00:00,
2013-01-12 23:01:00,38.4,29.1,30.07,East,97,0.0,5.0,69,0.00,,---,0.00,VWS V14.00,2013-01-13 07:01:00,
2013-01-12 23:02:00,38.3,29.0,30.07,ENE,65,1.0,5.0,68,0.00,,,0.00,weatherlink.com 1.10,2013-01-13 07:02:00,
2013-01-12 23:20:00,38.8,28.0,30.07,ESE,113,1.0,3.0,66,0.00,,,0.00,weatherlink.com 1.10,2013-01-13 07:20:00,
2013-01-12 23:30:00,35.8,28.0,30.07,ESE,120,0.0,4.0,73,0.00,,---,0.00,VWS V14.00,2013-01-13 07:30:00,
2013-01-12 23:31:00,38.3,28.7,30.07,ESE,108,1.0,3.0,68,0.00,,---,0.00,VWS V14.00,2013-01-13 07:31:00,
2013-01-12 23:37:00,38.0,28.0,30.07,East,83,2.0,3.0,68,0.00,,,0.00,weatherlink.com 1.10,2013-01-13 07:37:00,
2013-01-12 23:54:00,38.1,28.0,30.07,ESE,113,1.0,1.0,68,0.00,,,0.00,weatherlink.com 1.10,2013-01-13 07:54:00,